Stations météo

réclame
Mon MeteoGroup
St. Mary's, Grande-Bretagne (3803): Température de l'air & dewpoint: 09.08.2018 00:00:00 - 15.08.2018 00:00:00 (BST)St. Mary's, Grande-Bretagne (3803): Température de l'air -20cm: 09.08.2018 00:00:00 - 15.08.2018 00:00:00 (BST)St. Mary's, Grande-Bretagne (3803): Vitesse du vent & gusts: 09.08.2018 00:00:00 - 15.08.2018 00:00:00 (BST)St. Mary's, Grande-Bretagne (3803): Direction du vent: 09.08.2018 00:00:00 - 15.08.2018 00:00:00 (BST)St. Mary's, Grande-Bretagne (3803): reduced air pressure: 09.08.2018 00:00:00 - 15.08.2018 00:00:00 (BST)St. Mary's, Grande-Bretagne (3803): visibility: 09.08.2018 00:00:00 - 15.08.2018 00:00:00 (BST)St. Mary's, Grande-Bretagne (3803): Quantités de précipitations: 09.08.2018 00:00:00 - 15.08.2018 00:00:00 (BST)
Date & Time tt [°C] td [°C] tt -20cm [°C] ff [km/h] ff [knt] fx [km/h] fx [knt] dd ppp [hPa] vv [km] rr [mm]
15.08.2018 00:00:00 - - - - - - - - - - 0,0
14.08.2018 23:00:00 16,4 15,3 - 16 9 - - W 1021,3 16 0,0
14.08.2018 22:00:00 16,9 15,3 - 26 14 - - W 1021,6 21 0,0
14.08.2018 21:00:00 17,5 16,4 - 21 11 - - WSW 1021,3 12 0,0
14.08.2018 20:00:00 17,7 16,2 - 18 10 - - WSW 1021,0 15 0,0
14.08.2018 19:00:00 18,1 16,2 - 24 13 - - W 1020,9 20 0,0
14.08.2018 18:00:00 18,9 16,7 - 24 13 - - W 1021,0 10 0,0
14.08.2018 17:00:00 18,6 16,0 - 24 13 - - WSW 1021,1 10 0,0
14.08.2018 16:00:00 19,5 15,3 - 21 11 - - WSW 1021,1 10 0,0
14.08.2018 15:00:00 18,9 15,1 - 18 10 - - W 1021,2 10 0,0
14.08.2018 14:00:00 18,0 15,5 - 21 11 - - W 1021,0 10 0,0
14.08.2018 13:00:00 17,7 16,0 - 21 11 - - W 1020,9 10 0,0
14.08.2018 12:00:00 17,5 16,7 - 22 12 - - W 1020,6 10 0,0
14.08.2018 11:00:00 17,8 17,1 - 21 11 - - W 1020,3 9 0,0
14.08.2018 10:00:00 16,8 16,5 18,9 21 11 - - WNW 1020,0 10 0,0
14.08.2018 09:00:00 16,7 16,6 - 16 9 - - WNW 1019,5 9 0,0
14.08.2018 08:00:00 16,4 16,3 - 16 9 - - WNW 1019,0 4,0 0,2
14.08.2018 07:00:00 16,2 16,1 - 15 8 - - WNW 1018,7 2,0 0,0
14.08.2018 06:00:00 16,2 16,1 - 13 7 - - WNW 1018,0 6 0,0
14.08.2018 05:00:00 16,4 16,2 - 18 10 - - WNW 1017,7 9 0,0
14.08.2018 04:00:00 16,5 16,4 - 18 10 - - WNW 1017,6 2,6 0,2
14.08.2018 03:00:00 16,4 16,2 - 15 8 - - W 1017,4 1,4 0,0
14.08.2018 02:00:00 16,5 16,1 - 15 8 - - W 1017,3 1,7 0,0
14.08.2018 01:00:00 16,3 15,5 - 16 9 - - WNW 1017,3 3,3 0,0
14.08.2018 00:00:00 16,1 14,1 - 22 12 - - WNW 1017,0 19 0,0
13.08.2018 23:00:00 16,5 14,4 - 22 12 - - WNW 1016,7 19 0,0
13.08.2018 22:00:00 16,4 14,3 - 18 10 - - WNW 1016,3 23 0,0
13.08.2018 21:00:00 15,9 13,8 - 13 7 - - NW 1015,6 16 0,0
13.08.2018 20:00:00 17,0 13,9 - 18 10 - - WNW 1015,0 35 0,0
13.08.2018 19:00:00 16,6 14,9 - 22 12 - - NW 1014,6 15 0,0
13.08.2018 18:00:00 17,8 15,2 - 16 9 - - NW 1014,1 10 0,0
13.08.2018 17:00:00 18,6 15,3 - 22 12 - - NW 1013,6 10 0,0
13.08.2018 16:00:00 19,3 14,9 - 21 11 - - WNW 1013,6 10 0,0
13.08.2018 15:00:00 19,9 15,2 - 26 14 - - WNW 1013,2 10 0,0
13.08.2018 14:00:00 19,8 15,1 - 24 13 - - NW 1012,8 10 0,0
13.08.2018 13:00:00 19,4 15,3 - 22 12 - - WNW 1012,4 10 0,0
13.08.2018 12:00:00 19,7 15,3 - 16 9 - - WNW 1012,0 10 0,0
13.08.2018 11:00:00 18,5 14,9 - 16 9 - - WNW 1011,5 10 0,0
13.08.2018 10:00:00 17,7 14,2 18,2 15 8 - - NW 1010,9 10 0,0
13.08.2018 09:00:00 16,9 14,1 - 9 5 - - WNW 1010,4 10 0,0
13.08.2018 08:00:00 15,9 14,3 - 9 5 - - NW 1009,9 10 0,0
13.08.2018 07:00:00 14,5 13,6 - 9 5 - - WNW 1009,2 15 0,0
13.08.2018 06:00:00 14,4 13,3 - 11 6 - - NW 1008,7 23 0,0
13.08.2018 05:00:00 14,6 13,6 - 11 6 - - NW 1008,3 35 0,0
13.08.2018 04:00:00 14,8 13,7 - 11 6 - - NW 1008,2 27 0,0
13.08.2018 03:00:00 14,9 13,9 - 13 7 - - WNW 1008,1 45 0,0
13.08.2018 02:00:00 15,1 14,0 - 13 7 - - WNW 1008,2 40 0,0
13.08.2018 01:00:00 14,9 13,8 - 11 6 - - WNW 1008,1 40 0,0
13.08.2018 00:00:00 15,2 14,1 - 11 6 - - WNW 1007,9 30 0,0
12.08.2018 23:00:00 14,9 14,1 - 11 6 - - WNW 1007,8 16 0,0
12.08.2018 22:00:00 15,4 14,7 - 11 6 - - WNW 1007,7 19 0,0
12.08.2018 21:00:00 15,5 14,4 - 13 7 - - WNW 1007,3 21 0,0
12.08.2018 20:00:00 15,7 14,6 - 16 9 - - W 1006,9 40 0,0
12.08.2018 19:00:00 16,3 15,5 - 13 7 - - W 1006,8 35 0,0
12.08.2018 18:00:00 16,7 16,0 - 11 6 - - W 1006,8 21 0,0
12.08.2018 17:00:00 16,0 15,4 - 13 7 - - WSW 1006,9 5 0,6
12.08.2018 16:00:00 17,2 14,8 - 21 11 - - SW 1007,3 7 0,0
12.08.2018 15:00:00 19,8 17,1 - 22 12 - - SW 1007,2 24 0,0
12.08.2018 14:00:00 19,3 17,1 - 21 11 - - SW 1007,3 30 0,0
12.08.2018 13:00:00 19,2 15,9 - 21 11 - - WSW 1007,5 50 0,0
12.08.2018 12:00:00 18,1 14,9 - 24 13 - - SW 1007,7 30 0,0
12.08.2018 11:00:00 18,1 17,1 - 18 10 - - SW 1007,7 24 0,0
12.08.2018 10:00:00 17,1 15,8 18,5 18 10 - - WSW 1007,6 23 0,0
12.08.2018 09:00:00 17,2 16,4 - 21 11 - - SW 1007,5 16 0,0
12.08.2018 08:00:00 16,8 16,3 - 16 9 - - SW 1007,6 11 0,0
12.08.2018 07:00:00 16,3 16,2 - 16 9 - - WSW 1007,8 17 0,0
12.08.2018 06:00:00 16,5 16,5 - 18 10 - - W 1007,8 22 0,0
12.08.2018 05:00:00 16,6 16,6 - 24 13 46 25 W 1007,9 18 0,4
12.08.2018 04:00:00 17,0 16,9 - 34 18 - - S 1008,3 0,5 2,8
12.08.2018 03:00:00 16,8 16,8 - 28 15 - - S 1009,5 0,1 0,2
12.08.2018 02:00:00 16,9 16,8 - 26 14 - - S 1010,5 0,1 0,2
12.08.2018 01:00:00 17,0 17,0 - 31 17 - - SSW 1011,5 0,2 0,0
12.08.2018 00:00:00 17,4 17,3 - 31 17 50 27 SSW 1012,3 0,6 0,2
11.08.2018 23:00:00 17,1 17,0 - 44 24 55 30 SSW 1012,8 2,4 2,0
11.08.2018 22:00:00 17,1 17,0 - 46 25 54 29 S 1013,3 4,4 1,4
11.08.2018 21:00:00 17,1 16,9 - 44 24 54 29 SSW 1013,9 2,6 3,2
11.08.2018 20:00:00 17,3 17,1 - 44 24 57 31 SSW 1014,4 5 0,0
11.08.2018 19:00:00 17,1 16,9 - 46 25 63 34 SSW 1014,9 1,8 0,2
11.08.2018 18:00:00 17,0 16,9 - 48 26 63 34 SSW 1015,6 3,5 0,2
11.08.2018 17:00:00 16,9 16,7 - 54 29 63 34 SSW 1016,1 0,9 0,6
11.08.2018 16:00:00 16,7 16,4 - 42 23 61 33 S 1016,6 1,4 0,4
11.08.2018 15:00:00 16,9 16,5 - 50 27 61 33 S 1017,3 1,5 0,0
11.08.2018 14:00:00 16,9 16,5 - 46 25 59 32 SSW 1017,8 1,5 0,2
11.08.2018 13:00:00 17,8 16,4 - 46 25 57 31 SSW 1018,1 7 0,0
11.08.2018 12:00:00 18,0 16,8 - 42 23 55 30 SSW 1018,3 10 0,0
11.08.2018 11:00:00 17,7 17,3 - 44 24 50 27 SSW 1018,6 7 0,2
11.08.2018 10:00:00 16,8 16,7 19,0 41 22 48 26 SSW 1019,0 1,9 0,4
11.08.2018 09:00:00 16,6 16,5 - 35 19 48 26 S 1019,5 1,9 0,6
11.08.2018 08:00:00 16,1 15,8 - 37 20 50 27 S 1019,7 6 0,0
11.08.2018 07:00:00 16,0 15,7 - 41 22 48 26 S 1020,0 10 1,0
11.08.2018 06:00:00 15,9 15,5 - 34 18 - - S 1020,5 2,2 0,4
11.08.2018 05:00:00 16,0 15,3 - 31 17 - - S 1021,0 8 0,2
11.08.2018 04:00:00 16,1 15,6 - 22 12 - - S 1021,5 23 0,0
11.08.2018 03:00:00 15,7 15,3 - 16 9 - - S 1022,0 21 0,0
11.08.2018 02:00:00 15,3 14,9 - 16 9 - - SSW 1022,6 13 0,4
11.08.2018 01:00:00 15,7 15,1 - 11 6 - - S 1023,0 15 0,8
11.08.2018 00:00:00 15,9 14,6 - 4 2 - - S 1023,1 50 0,0
10.08.2018 23:00:00 15,9 14,4 - 8 4 - - WSW 1023,0 50 0,0
10.08.2018 22:00:00 15,9 14,0 - 11 6 - - WSW 1022,8 50 0,0
10.08.2018 21:00:00 16,2 14,8 - 11 6 - - W 1022,4 45 0,0
10.08.2018 20:00:00 16,5 14,3 - 15 8 - - W 1022,1 50 0,0
10.08.2018 19:00:00 17,2 14,5 - 16 9 - - W 1021,9 45 0,0
10.08.2018 18:00:00 17,5 14,9 - 16 9 - - W 1021,8 10 0,0
10.08.2018 17:00:00 16,1 14,8 - 21 11 - - WNW 1021,7 10 0,2
10.08.2018 16:00:00 18,0 15,0 - 21 11 - - WNW 1021,4 10 0,0
10.08.2018 15:00:00 18,8 14,3 - 24 13 - - W 1021,0 10 0,0
10.08.2018 14:00:00 19,3 15,2 - 21 11 - - W 1020,9 10 0,0
10.08.2018 13:00:00 18,7 15,8 - 22 12 - - W 1020,4 10 0,0
10.08.2018 12:00:00 16,1 14,8 - 26 14 - - WNW 1020,1 10 0,2
10.08.2018 11:00:00 15,3 14,2 - 34 18 - - W 1019,5 10 0,2
10.08.2018 10:00:00 15,5 13,8 19,0 29 16 46 25 W 1019,1 10 0,2
10.08.2018 09:00:00 16,3 14,5 - 29 16 - - W 1018,8 10 0,8
10.08.2018 08:00:00 15,7 13,7 - 31 17 52 28 W 1018,5 10 0,0
10.08.2018 07:00:00 14,9 14,1 - 29 16 54 29 W 1018,0 7 1,8
10.08.2018 06:00:00 15,1 13,5 - 35 19 48 26 W 1017,8 26 0,0
10.08.2018 05:00:00 14,2 13,5 - 24 13 - - WSW 1018,0 10 2,4
10.08.2018 04:00:00 14,8 12,2 - 28 15 - - SW 1018,6 3,0 0,0
10.08.2018 03:00:00 15,7 11,9 - 22 12 - - WSW 1019,0 30 0,0
10.08.2018 02:00:00 15,3 11,4 - 15 8 - - WSW 1019,3 27 0,0
10.08.2018 01:00:00 15,2 11,0 - 18 10 - - W 1019,4 45 0,0
10.08.2018 00:00:00 15,2 10,4 - 24 13 - - W 1019,3 50 0,0
09.08.2018 23:00:00 15,1 10,1 - 22 12 - - W 1019,2 50 0,0
09.08.2018 22:00:00 15,3 11,3 - 13 7 - - W 1018,8 30 0,0
09.08.2018 21:00:00 15,2 10,5 - 22 12 - - WSW 1018,5 50 0,0
09.08.2018 20:00:00 16,0 9,3 - 24 13 - - W 1018,2 50 0,0
09.08.2018 19:00:00 17,6 9,7 - 24 13 - - W 1018,0 21 0,0
09.08.2018 18:00:00 18,0 9,8 - 24 13 - - W 1017,7 10 0,0
09.08.2018 17:00:00 18,2 9,1 - 28 15 - - W 1017,7 10 0,0
09.08.2018 16:00:00 19,3 10,8 - 26 14 - - W 1017,6 10 0,0
09.08.2018 15:00:00 19,6 11,0 - 22 12 - - WSW 1017,5 10 0,0
09.08.2018 14:00:00 18,1 11,8 - 24 13 - - W 1017,3 10 0,0
09.08.2018 13:00:00 20,0 10,9 - 22 12 - - W 1017,0 10 0,0
09.08.2018 12:00:00 17,7 9,7 - 22 12 - - WSW 1016,8 10 0,0
09.08.2018 11:00:00 17,8 10,1 - 16 9 - - WSW 1016,6 10 0,0
09.08.2018 10:00:00 17,8 10,2 19,0 18 10 - - W 1016,4 50 0,0
09.08.2018 09:00:00 16,8 10,0 - 18 10 - - WNW 1016,0 10 0,0
09.08.2018 08:00:00 15,9 11,3 - 11 6 - - NW 1015,8 10 0,0
09.08.2018 07:00:00 13,9 9,9 - 11 6 - - NW 1015,4 35 0,0
09.08.2018 06:00:00 13,5 9,6 - 9 5 - - NW 1015,4 35 0,0
09.08.2018 05:00:00 14,1 9,2 - 21 11 - - NNW 1015,6 45 0,0
09.08.2018 04:00:00 14,4 10,6 - 13 7 - - WNW 1015,4 21 0,0
09.08.2018 03:00:00 14,6 10,1 - 11 6 - - NW 1015,1 25 0,0
09.08.2018 02:00:00 14,6 9,9 - 11 6 - - NW 1015,5 27 0,0
09.08.2018 01:00:00 14,9 10,6 - 11 6 - - NW 1015,4 29 0,0
09.08.2018 00:00:00 15,2 10,6 - 15 8 - - WNW 1015,3 30 0,0

tt = Température de l'air
td = dewpoint
tt -20cm = Température de l'air -20cm
ff = Vitesse du vent
fx = gusts
dd = Direction du vent
ppp = reduced air pressure
vv = visibility
rr = Quantités de précipitations

stations d'obs. à proximité